IRNSS-1B

Last updated on Thu Oct 30 2025 00:02:49 GMT+0000 (Coordinated Universal Time)

1 39635U 14017A 25302.41075740 .00000103 00000+0 00000+0 0 9991 2 39635 28.9069 244.3510 0018551 190.1113 166.4918 1.00275978 42478
UTC large
Height (km)
Speed (km/s)
/
Latitude / Longitude
Inclination (degrees)
Orbital Period (minutes)
Azimuth
Elevation
Range (km)
Doppler Factor

Next 0 passes for location: London (51.5072 / 0.1276)

Sorry there are no passes over London.